Terminal Aerodrome Forecast
Issued by NWS

Home | Current Version | Previous Version | Text Only | Print | Product List | Glossary On
Versions: 1 2 3 4 5 6 7 8 9 10 11 12 13 14 15
000
FTUS46 KSTO 111700
TAFSMF
TAF
KSMF 111720Z 1118/1218 17008KT P6SM FEW150
     FM120000 18012KT P6SM SKC
     FM120600 16008KT P6SM SKC=

USA.gov is the U.S. government's official web portal to all federal, state and local government web resources and services.